Regional Weather Roundup
Issued by NWS

Home | Current Version | Previous Version | Text Only | Print | Product List | Glossary On
Versions: 1 2 3 4 5 6 7 8 9 10 11 12 13 14 15 16 17 18 19 20 21 22 23 24 25 26 27 28 29 30 31 32 33 34 35 36 37 38 39 40 41 42 43 44 45 46 47 48 49 50
000
ASUS43 KMPX 011910
RWRMN
WEATHER ROUNDUP FOR MINNESOTA
NATIONAL WEATHER SERVICE TWIN CITIES/CHANHASSEN MN
100 PM CST SUN FEB 01 2015


NOTE: "FAIR" INDICATES FEW OR NO CLOUDS BELOW 12,000 FEET WITH NO
SIGNIFICANT WEATHER AND/OR OBSTRUCTIONS TO VISIBILITY. N/A MEANS
CURRENT SKY AND/OR WEATHER CONDITIONS ARE NOT AVAILABLE.

MNZ060>063-068>070-012000-
   Twin Cities Metro

CITY           SKY/WX    TMP DP  RH WIND       PRES   REMARKS
TWIN CITIES    CLOUDY    16   2  54 N17G28    30.23F WCI   0
ST PAUL        CLOUDY    16   3  56 N21       30.25F WCI  -1
CRYSTAL        CLOUDY    17   2  51 NE13G23   30.23F WCI   4
BLAINE         PTSUNNY   18   3  53 N23       30.24F WCI   0
LAKEVILLE      CLOUDY    12   1  62 NE20      30.19F WCI  -6
EDEN PRAIRIE   CLOUDY    16   2  54 N14G24    30.21F WCI   2
SOUTH ST PAUL  CLOUDY    17   2  53 NE12G22   30.22F WCI   4
LAKE ELMO      FAIR      18   5  57 N13       30.23F WCI   4
$$
MNZ001>005-007-008-013>017-022>024-027-028-012000-
   Northwest Minnesota

CITY           SKY/WX    TMP DP  RH WIND       PRES   REMARKS
BEMIDJI        SUNNY     -2 -14  56 N7        30.39F WCI -15
HALLOCK        SUNNY     -6 -17  59 NW8       30.54F WCI -21
ROSEAU         SUNNY     -6 -15  65 W6        30.49F WCI -18
WARROAD        SUNNY     -8 -18  59 CALM      30.47F
THIEF RVR FALL SUNNY     -4 -13  65 NW8       30.47F WCI -19
CROOKSTON      SUNNY     -2 -11  65 N14       30.53F WCI -21
FOSSTON        SUNNY      1  -9  60 N7        30.43F WCI -11
DETROIT LAKES  SUNNY      5  -9  51 N6        30.39S WCI  -6
MOORHEAD       FAIR       1 -11  55 N16       30.47F WCI -18
PARK RAPIDS    SUNNY      3 -16  40 N8        30.34F WCI -10
MAHNOMEN       FAIR       1 -12  53 N10       30.41F WCI -15
$$
MNZ006-009>011-018-025>026-012000-
   North Central Minnesota

CITY           SKY/WX    TMP DP  RH WIND       PRES   REMARKS
BAUDETTE       SUNNY     -8 -18  61 NW9       30.44F WCI -25
FLAG ISLAND    SUNNY     -9 -18  64 N5        30.46F WCI -21
INTL FALLS     SUNNY     -3 -16  53 N7        30.41F WCI -16
WASKISH        SUNNY     -2 -13  60 SW3       30.42F
BIG FORK       SUNNY      1 -15  46 N5        30.37F WCI  -8
LONGVILLE      SUNNY      3 -15  43 N7        30.35F WCI  -9
GRAND RAPIDS   SUNNY      1 -13  51 N9        30.33F WCI -14
CRANE LAKE     SUNNY     -6 -18  54 N7        30.42F WCI -20
ORR            SUNNY      0 -18  42 NW5       30.34F WCI -10
COOK           SUNNY      0 -17  46 N5        30.36F WCI -10
WALKER         FAIR       1 -15  47 N6        30.37F WCI -11
$$
MNZ012-019>021-037-012000-
   Northeast Minnesota

CITY           SKY/WX    TMP DP  RH WIND       PRES   REMARKS
DULUTH         SUNNY      7 -14  37 N10       30.28F WCI  -8
ELY            SUNNY      0 -17  46 NE6       30.33F WCI -12
HIBBING        SUNNY      3 -16  40 N8        30.34F WCI -10
EVELETH        SUNNY      3 -15  43 NE8       30.34F WCI -10
DULUTH HARBOR  MOSUNNY   12  -4  48 NE17      30.36F WCI  -5
TWO HARBORS    SUNNY     12  -9  37 E7        30.30F WCI   2
SILVER BAY     MOSUNNY   10 -15  31 NE8       30.30F WCI  -1
GRAND MARAIS     N/A     10 -13  34 NE3       30.37F
G MARAIS ARPRT SUNNY      1 -18  39 NW8       30.24F WCI -12
$$
MNZ029>031-032-039>041-046>048-054>057-064-012000-
   West Central Minnesota

CITY           SKY/WX    TMP DP  RH WIND       PRES   REMARKS
FERGUS FALLS   SUNNY      7 -13  40 N9        30.43S WCI  -7
WHEATON        SUNNY      3  -8  60 NW15G23   30.43F WCI -15
MORRIS         SUNNY     10  -2  56 N17       30.34F WCI  -7
ALEXANDRIA     SUNNY      9  -1  64 N15       30.31F WCI  -8
ELBOW LAKE     FAIR       6  -6  56 N9G16     30.36F WCI  -8
WADENA         SUNNY      3 -11  51 N10       30.33F WCI -12
GLENWOOD       SUNNY     10   1  67 N16       30.30F WCI  -7
APPLETON       MOSUNNY   12   0  57 N18       30.34F WCI  -5
BENSON         CLOUDY    12   0  57 NE14G22   30.32F WCI  -3
ORTONVILLE     MOSUNNY    5  -8  56 N22G28    30.37F WCI -16
MADISON        PTSUNNY   12   1  62 N22G29    30.35F WCI  -7
WILLMAR        FAIR      16   1  53 N20G25    30.28F WCI  -1
$$
MNZ033>034-036-042>043-049>051-058-059-012000-
   Central Minnesota

CITY           SKY/WX    TMP DP  RH WIND       PRES   REMARKS
ST CLOUD       MOSUNNY   14   0  53 NE12G21   30.28F WCI   0
SAUK CENTRE    FAIR      11  -1  58 N12G22    30.30F WCI  -3
PAYNESVILLE    PTSUNNY   11   0  61 N15G24    30.28F WCI  -5
AITKIN         SUNNY     10 -17  28 N13       30.31F WCI  -5
PINE RIVER     SUNNY      1 -11  55 N12       30.37F WCI -15
BRAINERD       SUNNY      9 -13  36 N12       30.32F WCI  -6
STAPLES        SUNNY      7 -13  40 N12       30.33F WCI  -9
LONG PRAIRIE   FAIR      10   0  61 N12G20    30.30F WCI  -4
LITTLE FALLS   SUNNY     12  -2  52 N7G17     30.31F WCI   2
LITCHFIELD     PTSUNNY   14   3  62 N18       30.25F WCI  -3
BUFFALO        PTSUNNY   15   3  59 N13G23    30.26F WCI   1
MAPLE LAKE     PTSUNNY   15   5  63 N14G20    30.27F WCI   0
$$
MNZ037-044-045-052-053-012000-
   East Central Minnesota

CITY           SKY/WX    TMP DP  RH WIND       PRES   REMARKS
PRINCETON      MOSUNNY   16   3  57 N17G24    30.27F WCI   0
MORA           SUNNY     14   0  52 NE9       30.30F WCI   2
CAMBRIDGE      CLOUDY    16   3  57 N9G17     30.25F WCI   4
RUSH CITY      CLOUDY    15   5  66 N8G17     30.27F WCI   3
MOOSE LAKE     SUNNY     12  -8  40 NE10G18   30.29F WCI  -1
HINCKLEY       MOCLDY    14   3  62 N15       30.28F WCI  -1
CLOQUET        SUNNY      7 -17  33 N8        30.29F WCI  -6
MCGREGOR       SUNNY      9 -13  37 NE8       30.32F WCI  -4
$$
MNZ071>073-080-081-089-090-097-098-012000-
   Southwest Minnesota

CITY           SKY/WX    TMP DP  RH WIND       PRES   REMARKS
MONTEVIDEO     PTSUNNY   14   3  62 NE21G28   30.31F WCI  -4
GRANITE FALLS  PTSUNNY   14   4  64 N16G25    30.30F WCI  -2
CANBY          CLOUDY     8  -1  67 N21G30    30.33F WCI -12
MARSHALL       CLOUDY    10   0  61 N22G28    30.28S WCI  -9
REDWOOD FALLS  CLOUDY    14   4  64 NE10G23   30.25F WCI   1
OLIVIA         PTSUNNY   14   5  67 NE16G24   30.25F WCI  -2
PIPESTONE      PTSUNNY    7   1  78 NE23G29   30.21S HAZE    WCI -14
WINDOM         LGT SNOW  12   7  79 N24       30.17S WCI  -8
WORTHINGTON    CLOUDY    19   3  49 N24G32    30.17S VSB 3/4 WCI   2
JACKSON        CLOUDY    14   9  79 VRB18G28  30.15R HAZE    WCI  -3
TRACY          LGT SNOW  12   7  78 N17       30.24F WCI  -5
SLAYTON        LGT SNOW   9   5  81 N23       30.20S VSB 1   WCI -11
$$
MNZ065>067-074>077-082>085-091>093-012000-
   South Central Minnesota

CITY           SKY/WX    TMP DP  RH WIND       PRES   REMARKS
MANKATO        CLOUDY    14   3  62 N17G25    30.17F WCI  -3
NEW ULM        CLOUDY    14   1  57 NE10G22   30.21S WCI   1
ST JAMES       LGT SNOW  14   9  79 N20       30.20S WCI  -3
FAIRMONT       CLOUDY    14   9  79 N20G28    30.12F WCI  -3
GLENCOE        PTSUNNY   17   6  63 N15G21    30.22S WCI   2
FARIBAULT      CLOUDY    14   3  62 N16G24    30.17F WCI  -2
OWATONNA       CLOUDY    12   3  67 N21G28    30.13S WCI  -6
WASECA         CLOUDY    14   9  79 N22       30.15F HAZE    WCI  -4
ALBERT LEA     LGT SNOW  12   9  85 N23       30.08F VSB 1   WCI  -7
$$
MNZ078>079-086>088-094>096-012000-
   Southeast Minnesota

CITY           SKY/WX    TMP DP  RH WIND       PRES   REMARKS
ROCHESTER      LGT SNOW  12   7  80 N23G29    30.08S WCI  -7
RED WING       CLOUDY    16   0  48 NE10G23   30.18F WCI   3
STANTON        CLOUDY    15   5  63 N21G26    30.17F WCI  -2
DODGE CENTER   CLOUDY    12   9  85 N17       30.09S FOG     WCI  -5
WINONA         CLOUDY    18  10  73 NE10G17   30.14F HAZE    WCI   6
AUSTIN         LGT SNOW  12   9  85 N15G26    30.06S WCI  -4
PRESTON        CLOUDY    12   8  82 NE20G30   30.05S WCI  -6
$$
ABBREVIATIONS USED IN REMARKS
   TC - TEMPERATURES IN CELSIUS
  WCI - WIND CHILL INDEX
   HX - HEAT INDEX
  VSB - VISIBILITY
$$


USA.gov is the U.S. government's official web portal to all federal, state and local government web resources and services.